Regional Weather Roundup
Issued by NWS Jackson, KY

Home | Current Version | Previous Version | Graphics & Text | Print | Product List | Glossary On
Versions: 1 2 3 4 5 6 7 8 9 10 11 12 13 14 15 16 17 18 19 20 21 22 23 24 25 26 27 28 29 30 31 32 33 34 35 36 37 38 39 40 41 42 43 44 45 46 47 48 49 50
959
ASUS43 KJKL 241710
RWRJKL

EAST KENTUCKY HOURLY WEATHER ROUNDUP
NATIONAL WEATHER SERVICE JACKSON KY
100 PM EDT SAT SEP 24 2016

NOTE: "FAIR" INDICATES FEW OR NO CLOUDS BELOW 12,000 FEET WITH
NO SIGNIFICANT WEATHER AND/OR OBSTRUCTIONS TO VISIBILITY.

* THESE REPORTS ARE NOT UNDER NWS QUALITY CONTROL AND MAY NOT
  REPORT WEATHER SUCH AS PRECIPITATION AND FOG.

KYZ079-080-083-085-087-088-110-112-115-119-120-241800
...EASTERN KENTUCKY...

CITY           SKY/WX    TMP DP  RH WIND       PRES   REMARKS
JACKSON        SUNNY     84  66  54 CALM      30.16F
LONDON         PTSUNNY   85  61  44 VRB3      30.16F
SOMERSET*      MOSUNNY   82  61  47 CALM      30.16F
MONTICELLO*    MOSUNNY   86  65  49 N13       30.16F
WILLIAMSBURG*  SUNNY     82  64  54 CALM      30.16F
MIDDLESBORO*   SUNNY     84  64  50 CALM      30.16F
HARLAN APT*    SUNNY     84  61  45 CALM      30.17F
PIKE CO APT*     N/A     83  64  53 CALM      30.16F
BIG SANDY APT* MOSUNNY   87  66  49 N3        30.15F
MOREHEAD APT*  SUNNY     86  64  48 VRB3      30.16F
ASHLAND*       SUNNY     84  70  61 CALM      30.11F
$$

KYZ035-036-041-042-044-050-067-078-099-241800
...CENTRAL KENTUCKY...

CITY           SKY/WX    TMP DP  RH WIND       PRES   REMARKS
MT STERLING*   SUNNY     86  66  51 N3        30.16F
FLEMING/MASON* SUNNY     82  65  56 N5        30.16S
DANVILLE*      PTSUNNY   84  64  51 CALM      30.16F
LEXINGTON      MOSUNNY   88  62  41 W8        30.15F
FRANKFORT      SUNNY     87  65  47 VRB3      30.13F
LOUISVILLE     MOSUNNY   88  63  43 CALM      30.13F
LEBANON*         N/A     86  66  51 CALM      30.15F HAZE
GLASGOW*       SUNNY     86  64  47 CALM      30.14F
BOWLING GREEN  SUNNY     88  65  46 CALM      30.14F HX  90
$$

KYZ091>093-OHZ055-061-077-WVZ005-015-034-035-042-241800
...SOUTHERN OHIO/WEST VIRGINIA...

CITY           SKY/WX    TMP DP  RH WIND       PRES   REMARKS
COVINGTON      MOSUNNY   81  68  64 NE6       30.16F
COLUMBUS       CLOUDY    76  66  71 NE8       30.17F
DAYTON         CLOUDY    71  65  81 NE9       30.21S
WILMINGTON     CLOUDY    75  66  73 NE12      30.19S
HUNTINGTON     MOSUNNY   87  65  47 VRB6      30.13S
CHARLESTON     MOSUNNY   86  63  45 CALM      30.12F
PINEVILLE*     SUNNY     84  61  45 MISG      30.21F
BECKLEY        MOSUNNY   81  60  48 N10       30.20F
BLUEFIELD      PTSUNNY   78  59  51 VRB5      30.23F
LOGAN CO APT*    N/A     82  64  54 CALM      30.15F
$$

VAZ002-007-008-TNZ017-027-036-066-071-241800
...SOUTHWEST VIRGINIA/EAST TENNESSEE...

CITY           SKY/WX    TMP DP  RH WIND       PRES   REMARKS
WISE*          MOSUNNY   79  52  38 CALM      30.24F
JONESVILLE*      N/A     82  61  47 CALM      30.18F
ABINGDON*      MOSUNNY   83  62  49 NW3       30.19F
BRISTOL        MOSUNNY   84  64  50 CALM      30.16F
MORRISTOWN*    SUNNY     86  63  45 VRB5      30.14F
SEVIERVILLE*   SUNNY     90  61  37 VRB3      30.12F
KNOXVILLE      MOSUNNY   86  61  42 W3        30.13F
OAK RIDGE      SUNNY     86  63  45 S5        30.15F
CROSSVILLE     PTSUNNY   84  62  47 N6        30.19F
NASHVILLE      MOSUNNY   89  62  40 N7        30.13F
$$

...KEY TO REMARKS...
VSB - VISIBILITY IN MILES
WCI - WIND CHILL INDEX
HX  - HEAT INDEX

$$




USA.gov is the U.S. government's official web portal to all federal, state and local government web resources and services.